GLOBALSTAR M004 DEB, 43357

Orbit data source: Space-Track

GLOBALSTAR M004 DEB, 43357 is space debris in LEO originally from a launch on Sat, 14 Feb 1998 UTC launched from the Air Force Eastern Test Range (AFETR). Debris objects in space refer to the collection of defunct objects orbiting the Earth. Examples of debris include non-operational satellites, rocket bodies, and fragments generated from explosions, collisions, or faulty payload assembly.

Loading next visibility...
Identifier
43357, 1998-008H
Orbit
LEO
Last TLE update
10 hours ago
Origin
Manufacturer
Unknown
Mission
Spacecraft
Bus & Motor
Unknown
Mass
Unknown
Launch date (UTC)
1998-02-14 (27 years ago)
Launch vehicle
Unknown
Launch site
Air Force Eastern Test Range (AFETR)
Object type
Payload
Rocket body
Debris
Shape & HBR
Unknown
Radar Cross Section
Small (<0.1 m²)

Expand to show TLE details & history

TLE from 10 hours ago
0 GLOBALSTAR M004 DEB
1 43357U 98008H   25182.00567410  .00000519  00000-0  35079-2 0  9999
2 43357  51.9695 118.3801 0100874  34.7335 326.0063 12.60106824434108
Epoch: 2025-07-01T00:08Z
TLE epoch observation values (Epoch: 2025-07-01T00:08:10.242Z)
Latitude
-0.00005°
Longitude
-162.96995°
Altitude
1,358.194 km
Speed
7.21 km/s
True Right ascension
07h 53m 31s
True Declination
0° 00' 00"
Sunlit
Object was in daylight at epoch
Visualization orbit readout
Latitude
21.71875°
Longitude
-146.13311°
Altitude
1,344.956 km
Speed
7.224 km/s
Apparent Right ascension
09h 11m 10s
Apparent Declination
-5° 48' 47"
Sunlit
Object is in daylight
Visualization observer readout
Local Sidereal Time
21:26:18
Azimuth
6.688° NNE
Elevation
-55.728°
Doppler factor
1
Orbital elements
Apogee altitude
1,501.592 km
Perigee altitude
1,344.208 km
Semi-major axis
7,801.037 km
Eccentricity
0.01009
Inclination
51.9695°
RAAN
118.3801°
Arg. of periapsis
34.7335°
True anomaly
Unknown
Mean anomaly
326.0063°
Eccentric anomaly
Unknown
Mean motion
3.15003 °/min
Orbital period
114.28 mins
BSTAR
0.0035079
Loading maneuver chart data...
Loading SW <> Apogee altitude chart data...
Loading historical data...
Loading historical data...
Loading historical data...
Loading historical data...
Loading historical data...
Loading historical data...
Loading historical data...

GLOBALSTAR M004 DEB Visibility forecast

Observer location: undefined°, undefined°

Span
Click to sort rows by Start time (UTC) header in descending order
Start Az.
Max El. time (UTC)
Max El. Az.
Max El.
End time (UTC)
End Az.
14 mins2025-07-01 21:10:57.385Z189.833° SSW2025-07-01 21:17:57.385Z126.539° SE31.377°2025-07-01 21:24:57.385Z65.247° ENE
14 mins2025-07-01 23:10:57.385Z245.788° WSW2025-07-01 23:16:57.385Z307.756° NW43.077°2025-07-01 23:24:57.385Z50.15° ENE
14 mins2025-07-02 01:11:57.385Z289.009° WNW2025-07-02 01:18:57.385Z358.065° N31.495°2025-07-02 01:25:57.385Z56.73° ENE
14 mins2025-07-02 03:13:57.385Z312.468° NW2025-07-02 03:19:57.385Z11.278° NNE34.564°2025-07-02 03:27:57.385Z86.501° E
15 mins2025-07-02 05:13:57.385Z306.667° NW2025-07-02 05:20:57.385Z233.819° WSW44.911°2025-07-02 05:28:57.385Z132.949° SE
11 mins2025-07-02 07:14:57.385Z279.712° WNW2025-07-02 07:19:57.385Z238.794° WSW22.587°2025-07-02 07:25:57.385Z191.68° SSW
|